Погода в Котельниче

Погода в Котельниче : погода сейчас, прогноз погоды и архив. Всё, что Вы хотите узнать о погоде в Котельниче!

Хотите узнать прогноз погоды в Котельниче? Тогда Вам сюда: Погода в Котельниче

Поиск расширенной информации на нашем сайте:

Другие новости

Новости СМИ2

Главная страница сайта

Новости сайта

03.07.2017

Напоминаем, что на нашем специализированном сайте Метеоцентр.Азия вы можете получить высокодетализированные автоматические прогнозы погоды по пунктам России, СНГ и мира в авиационном формате (включающие направление и скорость ветра, видимость, явления погоды, количество и форму облачности, нижнюю и верхнюю границу облачности).

Рекомендуем: Далее

Погода в Котельниче - сегодня

Время (UTC), дата Ветер
(°,м/с) 
Видим.   Явления Облачность Т
(°С)
Тd
(°С)
f(%) Тe
(°С)
Pmin
(гПа)
dP
(гПа)
Po
(мм)
O2
(г/м3)
Тmin Tmax R s Состояние
почвы
03 16.09.18 150 (ЮВ) 1-2{03}  20000 м    8/8 600 м 
[Sc]
+6.8 +5.7 93 +8  1020.7  -0.2  754  295  +4.8        сухая 
15 16.09.18 140 (ЮВ) 3-5{07}  20000 м    9/3 300 м кучево-дожд., средняя, верхняя 
[Cb cap|Ac trans|Ci fib]
+15.7 +8.2 61 +16  1012.6  -2.6  748  284    +19.7       
21 16.09.18 150 (ЮВ) 3-5{08}  10 км  {ливн. осадки}  10/10 300 м 
[Sc]
+15.2 +8.8 66 +15  1008.7  -2.1  745  283           
03 17.09.18 190 (Ю) 1-2{04}  20000 м    9/0 средняя, верхняя 
[Ac trans|Ci fib]
+10.8 +7.3 79 +12  1005.3  -1.4  743  287  +10.7    0.3    влажная 
15 17.09.18 290 (З) 2-4{11}  20000 м  {ливн. осадки}  3/0 верхняя 
[Ci sp]
+10 +5.6 74 +10  1012.1  3.4  748  290    +13.3     
03 18.09.18 160 (Ю) 1-2{02}  0500 м  туман  6/0 верхняя 
[Ci fib]
+1.5 +1 96 +2  1014.1  -0.7  749  300  +1.2        влажная 
15 18.09.18 210 (ЮЗ) 3-6{07}  20000 м  в посл. час ливневой дождь  10/10 300 м кучево-дожд. 
[Cb cap]
+10 +7.3 83 +10  1005.2  -1.6  743  287    +13.4  0.3     
03 19.09.18 310 (СЗ) 4-7{09}  3900 м  ливневой дождь  10/10 300 м кучево-дожд. 
[Cb cap]
+8 +6.7 91 +7  1003.2  1.4  741  289  +7.9      мокрая 
15 19.09.18 320 (СЗ) 3-6{11}  20000 м    8/8 300 м кучево-дожд. 
[Cb cap]
+9.7 +3.8 67 +9  1008.5  1.9  745  289    +12.5     
18 19.09.18 320 (СЗ) 2-3{07}  10 км    ясно 
+6.2 +2.6 78 +6  1009.4  0.7  745  293           
21 19.09.18 310 (СЗ) 2-2{03}  10 км    ясно 
+4.5 +2.5 87 +4  1009.7  0.3  746  295           
03 20.09.18 330 (СЗ) 1-1{03}  20000 м  туман поземный  3/0 средняя 
[Ac trans]
+0.6 -0.5 92 +1  1010.8  0.6  746  300  +0.5        мокрая 
15 20.09.18 120 (ЮВ) 1-1{02}  20000 м  в посл. час ливневой дождь  10/10 300 м кучево-дожд. 
[Cb cap]
+9.6 +7.7 88 +11  1010.4  0.5  746  289    +13.8  0.9     
03 21.09.18 тихо () -0{01}  16000 м    9/9 300 м 
[Frnb]
+8.4 +7.3 93 +8  1013.9  1.1  749  291  +6.9    0.3    влажная 
15 21.09.18 180 (Ю) 1-2{04}  17000 м    8/3 600 м верхняя 
[Sc|Ci fib]
+14 +12 88 +19  1015.7  0.6  750  285    +15.5       
03 22.09.18 тихо () -0{01}  0600 м  туман  ?/?  
+9.3 +8.2 93 +9  1016.6  751  291  +8.1        влажная 
15 22.09.18 160 (Ю) 1-2{04}  20000 м    9/0 средняя, верхняя 
[Ac trans|Ci fib]
+18.5 +15.1 81 +29  1015.5  -1.2  750  280    +22.1       
03 23.09.18 160 (Ю) 2-3{04}  8000 м  дымка  ясно 
+10.6 +9.4 92 +11  1014.2  -0.5  749  289  +10.4        влажная 
06 23.09.18 170 (Ю) 2-4{05}  20000 м    ясно 
+15.3 +12 81 +20  1013.1  -0.7  749  283           
15 23.09.18 170 (Ю) 2-5{11}  20000 м    3/0 средняя 
[Ac trans]
+19.4 +10.7 57 +22  1007.8  -1.3  745  278    +22.9       
18 23.09.18 180 (Ю) 2-5{06}  10 км    ясно 
+17.2 +10.9 66 +21  1007.1  -0.4  744  280           
03 24.09.18 240 (ЮЗ) 1-2{02}  8000 м  дымка  8/8 300 м кучево-дожд. 
[Cb cap]
+11.4 +10 91 +14  1005.6  743  285  +10        сухая 
15 24.09.18 160 (Ю) 1-2{05}  20000 м    8/3 300 м средняя, верхняя 
[Sc|Ac trans|Ci fib]
+9.5 +6.2 80 +11  1011.7  1.4  747  290    +12.5     
03 25.09.18 150 (ЮВ) 2-3{04}  20000 м    10/8 300 м средняя, верхняя 
[Sc|Ac trans|Ci fib]
+6.8 +5.5 91 +7  1008.5  -1.5  745  292  +6.7        влажная 
15 25.09.18 190 (Ю) 3-8{09}  11000 м  в посл. час ливневой дождь  10/10 300 м кучево-дожд. 
[Cb cap]
+10.4 +9 91 +10  1001.9  -0.5  740  286    +10.6     
Время (UTC), дата Ветер
(°,м/с) 
Видим.   Явления Облачность Т
(°С)
Тd
(°С)
f(%) Тe
(°С)
Pmin
(гПа)
dP
(гПа)
Po
(мм)
O2
(г/м3)
Тmin Tmax R s Состояние
почвы

Для получения пояснительной информации подведите курсор к названию столбца.

ПОГОДА в Котельниче - архив

Всё, что Вы хотите узнать о погоде в Котельниче - удобно и подробно!

Выберите нужную дату (начиная с 1 января 2015* года) и нажмите кнопку "Найти".
Будут отображены архивные сводки погоды по пункту Котельнич, начиная с указанной даты.


Отображать данные в формате CSV (для использования в таблицах Excel)


Внимание! Наш архив погоды предназначен исключительно для личного некоммерческого использования в познавательных целях. Если Вам необходимы официальные справки о состоянии погоды (для производственных, юридических, коммерческих и т.п. целей), обращайтесь в органы Росгидромета.

*Примечание: данная дата относится к архиву по метеостанциям СССР (Россия, СНГ, Балтия).
Архив по метеостанциям Зарубежной Европы и Азии (кроме Китая) хранится 10 дней, по другим регионам земного шара (Китай, Африка, Америка, Австралия, Океания) - 1 день.

Котельнич - район местоположения метеостанции


Название, широта, долгота, высота метеостанции:
Котельнич 58.3°ш. 48.3°д. 127 м над ур. моря [Российская Федерация]

Дополнительная информация

В oтличие oт бoльшинства пoгoдных сайтoв мы публикуем пoдрoбную метеoинфoрмацию в детальнoм прoфессиoнальнoм фoрмате.

Характеристики температуры и влажнoсти вoздуха измеряются на высoте 2 м в тени вдали oт зданий и деревьев.
Скoрoсть ветра измеряется на высoте 10 м (на урoвне рoста челoвека скoрoсть ветра ниже в 1.5-2 раза). Если метеoстанция нахoдится в гoрoде или в лесу, тo скoрoсть ветра занижена на 2-4 м/с пo сравнению с oткрытым местoм. Скoрoсть ветра над акватoриями крупных рек и oзёр, а также на вершинах хoлмoв на 2-5 м/с выше, чем в oбычных услoвиях.
Атмoсфернoе давление в разных тoчках местнoсти мoжет значительнo oтличаться oт давления на метеoстанции, в зависимoсти oт услoвий рельефа (при пoдъёме на 10 м давление пoнижается примернo на 1 мм рт.ст.).